[[{"header":{"parameterUnit":"m.s-1","parameterCategory":1,"la1":30.2991,"la2":30.254,"lo1":-89.0895,"lo2":-89.0444,"dy":0.0017,"dx":0.0017,"nx":28,"ny":28,"refTime":"2025-04-08T21:00:00:Z","depth":0,"parameterNumber":2,"parameterNumberName":"U-component_of_WINDS"},"data":[0,0,0,0,0,0,0,0,0,0,0,0,0,0,0,0,0,0,0,0,0,0,0,0,0,0,0,0,0,0,0,0,0,0,0,0,0,0,0,0,0,0,0,0,0,0,0,0,0,0,0,0,0,0,0,0,0,0,2.76,2.76,0,2.7617,2.7617,2.7617,2.7586,2.7585,2.7584,2.7583,2.7601,2.7602,2.7604,0,0,0,0,0,0,0,0,0,0,0,0,0,2.7542,2.7543,2.76,2.76,2.76,2.7617,2.7617,2.7617,2.7587,2.7585,2.7584,2.7583,2.76,2.7602,2.7604,0,0,0,0,0,0,0,0,0,0,0,0,0,2.7564,2.7543,2.76,2.7587,2.7586,2.7617,2.7617,2.7617,2.7587,2.7585,2.7584,2.7582,2.76,2.7602,2.7604,2.7648,0,0,2.7611,2.7611,0,0,0,0,0,0,0,0,2.7562,2.7566,2.7588,2.7588,2.7587,2.7598,2.7603,2.7628,2.7587,2.7586,2.7583,2.7582,2.7601,2.7603,2.761,2.7649,2.765,2.7611,2.7612,2.7613,2.7614,0,0,0,0,0,0,0,2.7561,2.7565,2.7606,2.7589,2.7588,2.7581,2.7582,2.7607,2.7602,2.7586,2.7584,2.7587,2.76,2.7608,2.761,2.765,2.7611,2.7613,2.7614,2.7615,2.7728,2.773,0,0,0,0,0,0,2.7561,2.7564,2.7606,2.7607,2.7571,2.7583,2.7585,2.7596,2.7602,2.7601,2.7588,2.7585,2.7605,2.7607,2.761,2.7663,2.7613,2.7615,2.7616,2.7727,2.7729,2.7731,0,0,0,0,0,0,2.756,2.7565,2.7605,2.7585,2.7589,2.7586,2.7599,2.7597,2.7604,2.7603,2.7602,2.7596,2.7604,2.7607,2.7639,2.7664,2.7616,2.7618,2.7725,2.7727,2.773,2.7769,0,0,0,0,0,0,2.7558,2.7565,2.7581,2.7585,2.7591,2.7634,2.76,2.7598,2.7608,2.7605,2.7611,2.761,2.7603,2.7636,2.7642,2.7666,2.7619,2.7722,2.7726,2.7729,2.7766,2.7773,2.7779,0,0,0,0,0,2.7556,2.7591,2.7582,2.7587,2.7611,2.7635,2.7638,2.7629,2.761,2.7627,2.7626,2.761,2.766,2.764,2.7645,2.7671,2.7721,2.7725,2.7729,2.7763,2.7772,2.7779,0,0,0,0,0,0,2.7589,2.7591,2.7581,2.7618,2.7627,2.763,2.765,2.7638,2.7652,2.7648,2.7636,2.7638,2.7672,2.7675,2.7652,2.7715,2.7687,2.7693,2.7712,2.772,2.7726,2.7725,2.7621,0,0,0,0,0,2.76,2.762,2.7621,2.7653,2.7658,2.7654,2.7664,2.7656,2.7665,2.7668,2.767,2.7679,2.7696,2.7708,2.7725,2.7766,2.7768,2.7787,2.7793,2.7799,2.7803,2.7827,2.7836,2.7744,2.7743,2.7743,0,0,2.7624,2.7628,2.7641,2.766,2.7666,2.7687,2.7657,2.768,2.7695,2.7671,2.7702,2.7704,2.7713,2.7751,2.7767,2.7754,2.7829,2.7804,2.7808,2.781,2.7832,2.7841,2.7848,2.7746,2.7746,2.7745,0,0,2.7678,2.7683,2.7711,2.7718,2.7727,2.7724,2.7732,2.7737,2.7737,2.7768,2.7751,2.777,2.7801,2.7808,2.7816,2.7876,2.7862,2.7882,2.7916,2.7939,2.7947,2.7953,2.7975,2.7983,2.7886,2.7887,2.7887,0,2.7706,2.7737,2.7727,2.7752,2.7761,2.7742,2.7771,2.7778,2.7792,2.78,2.7784,2.7824,2.7829,2.7868,2.7883,2.789,2.7898,2.7881,2.7946,2.7953,2.7959,2.7979,2.7988,2.7889,2.7889,2.7888,2.7888,0,2.7772,2.7793,2.7815,2.783,2.7843,2.7869,2.7864,2.7878,2.787,2.7869,2.7902,2.7907,2.7925,2.7934,2.7926,2.7973,2.7965,2.7948,2.7921,2.797,2.7989,2.7997,2.7892,2.7892,2.7891,2.789,0,0,2.7845,2.7856,2.7864,2.7872,2.7882,2.7898,2.7925,2.7943,2.7955,2.7966,2.7989,2.8017,2.8002,2.8011,2.8004,2.8025,2.8073,2.8006,2.8006,2.8019,2.8127,2.8139,2.8148,2.8064,2.8066,2.8067,2.8126,0,2.7899,2.7945,2.7938,2.7983,2.8003,2.7986,2.801,2.8019,2.8019,2.8037,2.8038,2.8058,2.8037,2.8042,2.8062,2.8063,2.8095,2.8059,2.8086,2.8087,2.8083,2.8158,2.8171,2.8227,2.8134,2.8135,2.8136,0,2.7968,2.7982,2.8029,2.8038,2.8046,2.8067,2.8084,2.8101,2.8112,2.8111,2.8123,2.8113,2.814,2.8113,2.8152,2.8128,2.8138,2.8141,2.8143,2.8145,2.8114,2.8162,2.8244,2.8252,2.8148,2.8147,2.8146,0,2.8017,2.8049,2.8081,2.8088,2.8098,2.8114,2.8119,2.8128,2.814,2.8155,2.8163,2.8181,2.8191,2.8206,2.8201,2.8182,2.8241,2.8213,2.8241,2.8242,2.8254,2.8253,2.8338,2.8261,2.8261,2.8261,2.8261,0,2.8078,2.8107,2.8104,2.8123,2.8156,2.8149,2.8182,2.8185,2.8194,2.8215,2.8201,2.8221,2.8214,2.8234,2.8231,2.8264,2.8268,2.8269,2.8268,2.827,2.827,2.8276,2.8272,2.8263,2.8263,2.8262,2.8262,0,2.8138,2.8137,2.8171,2.8179,2.8182,2.8206,2.8213,2.8232,2.8233,2.8259,2.8265,2.8266,2.8288,2.8286,2.8311,2.8309,2.835,2.8344,2.8347,2.8345,2.8374,2.8371,2.8466,2.8478,2.8394,2.8394,2.8395,0,2.8177,2.8199,2.821,2.8224,2.823,2.8251,2.8264,2.8258,2.8272,2.8287,2.8305,2.8327,2.8344,2.8381,2.8384,2.8404,2.8398,2.843,2.8401,2.8403,2.8399,2.8398,2.84,2.8436,2.8437,2.8438,2.8438,0,2.8246,2.8245,2.8263,2.8283,2.8298,2.8312,2.8326,2.8337,2.8333,2.8349,2.8373,2.8386,2.8413,2.8435,2.8454,2.846,2.8449,2.8448,2.8455,2.8458,2.8458,2.8459,2.8362,2.8445,2.8445,2.8444,2.8444,2.8443,2.8297,2.8317,2.8328,2.835,2.8359,2.8373,2.8391,2.8395,2.8414,2.8436,2.8432,2.8459,2.8471,2.8495,2.8503,2.8525,2.8513,2.8524,2.8527,2.8529,2.8533,2.8455,2.8528,2.8528,2.8528,2.8528,2.8527,0,2.8366,2.8373,2.8393,2.8412,2.843,2.8419,2.8433,2.8449,2.8472,2.8485,2.8502,2.853,2.8552,2.8558,2.8579,2.8595,2.8591,2.8601,2.8599,2.8601,2.8542,2.8533,2.8604,2.8604,2.8604,2.8604,2.8604,2.8604,2.8404,2.8437,2.8437,2.8476,2.8483,2.8509,2.8518,2.8531,2.8541,2.8573,2.8591,2.8595,2.8605,2.8627,2.8647,2.8648,2.8657,2.8669,2.8669,2.8613,2.8605,2.8598,2.859,2.8671,2.8671,2.8726,2.8727,2.8727]},{"header":{"parameterUnit":"m.s-1","parameterCategory":1,"la1":30.2991,"la2":30.254,"lo1":-89.0895,"lo2":-89.0444,"dy":0.0017,"dx":0.0017,"nx":28,"ny":28,"refTime":"2025-04-08T21:00:00:Z","depth":0,"parameterNumber":3,"parameterNumberName":"V-component_of_WINDS"},"data":[0,0,0,0,0,0,0,0,0,0,0,0,0,0,0,0,0,0,0,0,0,0,0,0,0,0,0,0,0,0,0,0,0,0,0,0,0,0,0,0,0,0,0,0,0,0,0,0,0,0,0,0,0,0,0,0,0,0,-0.8396,-0.8397,0,-0.8484,-0.8485,-0.8486,-0.85,-0.8499,-0.8498,-0.8497,-0.8587,-0.859,-0.8593,0,0,0,0,0,0,0,0,0,0,0,0,0,-0.8241,-0.8244,-0.8396,-0.8397,-0.8398,-0.8484,-0.8485,-0.8486,-0.85,-0.8499,-0.8498,-0.8497,-0.8586,-0.859,-0.8594,0,0,0,0,0,0,0,0,0,0,0,0,0,-0.8317,-0.8245,-0.8396,-0.8415,-0.8418,-0.8483,-0.8485,-0.8486,-0.85,-0.8499,-0.8498,-0.8497,-0.8585,-0.8589,-0.8594,-0.8646,0,0,-0.8608,-0.861,0,0,0,0,0,0,0,0,-0.8312,-0.8322,-0.8411,-0.8414,-0.8417,-0.848,-0.8463,-0.854,-0.85,-0.8469,-0.8497,-0.8496,-0.8552,-0.856,-0.8579,-0.865,-0.8654,-0.8609,-0.8612,-0.8614,-0.8615,0,0,0,0,0,0,0,-0.8307,-0.8319,-0.8431,-0.8413,-0.8416,-0.842,-0.8429,-0.8478,-0.8516,-0.8471,-0.8473,-0.8483,-0.8554,-0.8574,-0.8581,-0.8655,-0.8609,-0.8613,-0.8616,-0.8617,-0.8776,-0.8778,0,0,0,0,0,0,-0.8298,-0.8314,-0.8428,-0.8433,-0.8361,-0.8424,-0.8434,-0.8461,-0.8515,-0.8523,-0.8484,-0.8483,-0.8567,-0.8575,-0.8584,-0.865,-0.8614,-0.8618,-0.8621,-0.8775,-0.8777,-0.8778,0,0,0,0,0,0,-0.8295,-0.8308,-0.8424,-0.8374,-0.8389,-0.8428,-0.8457,-0.8463,-0.8483,-0.8525,-0.8532,-0.8498,-0.8566,-0.8577,-0.8631,-0.8653,-0.862,-0.8624,-0.8773,-0.8775,-0.8777,-0.8781,0,0,0,0,0,0,-0.829,-0.8307,-0.8327,-0.8375,-0.8392,-0.847,-0.8459,-0.8466,-0.8491,-0.8492,-0.854,-0.8546,-0.8566,-0.8624,-0.8636,-0.8659,-0.8628,-0.8771,-0.8774,-0.8777,-0.8779,-0.8783,-0.8786,0,0,0,0,0,-0.8285,-0.8324,-0.8328,-0.8341,-0.8417,-0.8471,-0.8481,-0.8503,-0.8493,-0.8514,-0.8541,-0.8545,-0.8649,-0.8629,-0.8643,-0.8668,-0.877,-0.8773,-0.8776,-0.8777,-0.8782,-0.8786,0,0,0,0,0,0,-0.8278,-0.8331,-0.8335,-0.8391,-0.8426,-0.8473,-0.8499,-0.8507,-0.8545,-0.8544,-0.8569,-0.858,-0.8632,-0.8655,-0.8633,-0.8722,-0.8709,-0.8715,-0.8705,-0.871,-0.8713,-0.8707,-0.8632,0,0,0,0,0,-0.8282,-0.8321,-0.8365,-0.841,-0.8428,-0.8461,-0.8485,-0.8499,-0.8536,-0.8551,-0.8582,-0.8618,-0.8659,-0.8686,-0.8726,-0.8782,-0.8794,-0.8806,-0.881,-0.8813,-0.8818,-0.8851,-0.8858,-0.8789,-0.8788,-0.8788,0,0,-0.8293,-0.8327,-0.8349,-0.841,-0.8439,-0.8479,-0.8473,-0.8515,-0.8546,-0.8558,-0.861,-0.8634,-0.8677,-0.8733,-0.8759,-0.8753,-0.8839,-0.8817,-0.8819,-0.8822,-0.8855,-0.8862,-0.8867,-0.8791,-0.879,-0.879,0,0,-0.8333,-0.8362,-0.8403,-0.8432,-0.8477,-0.8498,-0.8508,-0.8554,-0.8571,-0.8624,-0.8635,-0.8671,-0.8741,-0.8771,-0.8796,-0.8848,-0.8854,-0.8861,-0.888,-0.8912,-0.8918,-0.8923,-0.8943,-0.8949,-0.8865,-0.8866,-0.8866,0,-0.834,-0.8401,-0.8423,-0.8466,-0.8492,-0.8506,-0.8548,-0.8576,-0.863,-0.8649,-0.8642,-0.8731,-0.876,-0.8824,-0.8837,-0.8856,-0.8869,-0.8856,-0.8915,-0.892,-0.8925,-0.8945,-0.8952,-0.8866,-0.8866,-0.8866,-0.8866,0,-0.8408,-0.845,-0.8478,-0.8532,-0.8562,-0.8604,-0.8633,-0.8661,-0.8673,-0.8695,-0.875,-0.8786,-0.8834,-0.885,-0.8862,-0.8917,-0.8912,-0.891,-0.8897,-0.8932,-0.8951,-0.8958,-0.8867,-0.8867,-0.8867,-0.8866,0,0,-0.8445,-0.8512,-0.8522,-0.8547,-0.8597,-0.863,-0.8673,-0.8721,-0.8745,-0.8782,-0.882,-0.8879,-0.8878,-0.8906,-0.8921,-0.8949,-0.8991,-0.8944,-0.8945,-0.8952,-0.9055,-0.9057,-0.9065,-0.8995,-0.8996,-0.8997,-0.9052,0,-0.8492,-0.8569,-0.8592,-0.8657,-0.8697,-0.8711,-0.8749,-0.8784,-0.8807,-0.8844,-0.8869,-0.8912,-0.8906,-0.8923,-0.8952,-0.898,-0.9012,-0.8976,-0.9031,-0.9033,-0.9021,-0.9075,-0.9077,-0.9127,-0.9059,-0.906,-0.9061,0,-0.8556,-0.8596,-0.8666,-0.8713,-0.873,-0.8764,-0.881,-0.8845,-0.8886,-0.8901,-0.8933,-0.8946,-0.8992,-0.8977,-0.9042,-0.9017,-0.9041,-0.9058,-0.9061,-0.9067,-0.905,-0.9084,-0.9143,-0.9151,-0.9073,-0.9072,-0.9071,0,-0.8578,-0.8649,-0.87,-0.8721,-0.8776,-0.88,-0.8824,-0.8864,-0.8892,-0.8932,-0.895,-0.8995,-0.902,-0.9055,-0.908,-0.9067,-0.9144,-0.913,-0.9158,-0.9158,-0.9175,-0.9173,-0.9239,-0.9188,-0.9188,-0.9188,-0.9188,0,-0.8628,-0.867,-0.8711,-0.8742,-0.8791,-0.8816,-0.8864,-0.8889,-0.8924,-0.8961,-0.8976,-0.9011,-0.9041,-0.908,-0.91,-0.9152,-0.9163,-0.9177,-0.9182,-0.9176,-0.9175,-0.9193,-0.919,-0.919,-0.919,-0.9189,-0.9189,0,-0.866,-0.8689,-0.8746,-0.8794,-0.8807,-0.8841,-0.8883,-0.8915,-0.8938,-0.8985,-0.8998,-0.9035,-0.9082,-0.911,-0.917,-0.9183,-0.9241,-0.9244,-0.9227,-0.923,-0.9257,-0.9254,-0.9337,-0.935,-0.9289,-0.929,-0.929,0,-0.8691,-0.8724,-0.8776,-0.8802,-0.8827,-0.8869,-0.8897,-0.8924,-0.8953,-0.9003,-0.9029,-0.9077,-0.9117,-0.9192,-0.9224,-0.927,-0.9275,-0.9301,-0.9282,-0.9276,-0.9277,-0.9275,-0.9279,-0.9304,-0.9305,-0.9305,-0.9306,0,-0.8742,-0.8755,-0.8796,-0.8842,-0.8876,-0.8913,-0.8951,-0.8971,-0.9004,-0.9037,-0.9085,-0.9116,-0.9177,-0.9225,-0.9274,-0.93,-0.9309,-0.9311,-0.9321,-0.9316,-0.9305,-0.9313,-0.9237,-0.9309,-0.9309,-0.9309,-0.9309,-0.9308,-0.8775,-0.8806,-0.8848,-0.8893,-0.8925,-0.896,-0.8992,-0.902,-0.9061,-0.9113,-0.9127,-0.9178,-0.9219,-0.9286,-0.9313,-0.9354,-0.935,-0.9363,-0.9366,-0.9369,-0.9371,-0.9298,-0.9363,-0.9363,-0.9363,-0.9363,-0.9363,0,-0.8829,-0.8857,-0.8898,-0.8951,-0.8986,-0.8992,-0.9034,-0.9064,-0.9109,-0.9147,-0.9186,-0.9242,-0.9289,-0.9326,-0.9375,-0.94,-0.9406,-0.9412,-0.9411,-0.9417,-0.9371,-0.9359,-0.9407,-0.9407,-0.9407,-0.9407,-0.9407,-0.9407,-0.8861,-0.8914,-0.8932,-0.9001,-0.9029,-0.9079,-0.9103,-0.9136,-0.9166,-0.9229,-0.9268,-0.9292,-0.933,-0.9381,-0.9425,-0.9435,-0.9453,-0.9459,-0.9469,-0.9425,-0.942,-0.9416,-0.9405,-0.9462,-0.9462,-0.9512,-0.9513,-0.9513]}]]